Location: Six Mile Lake
(44.9000°N, 79.7170°W)
Time: 22:00:37
(UTC-04:00)

BEESAT - Pass Details

Date: 04 July 2022
Orbit: 700 x 706 km, 98.6° (Epoch: 11 August)

Event Time Altitude Azimuth Distance (km) Brightness Sun altitude
Rises 21:42:43 0° 15° (NNE) 3,106 ? -5.7°
Reaches altitude 10° 21:44:59 10° 17° (NNE) 2,183 ? -6.0°
Maximum altitude 21:49:47 77° 103° (ESE) 729 ? -6.6°
Drops below altitude 10° 21:54:32 10° 190° (S) 2,170 ? -7.3°
Sets 21:56:47 0° 192° (SSW) 3,084 ? -7.6°
